Time,TemperatureF,DewpointF,PressureIn,WindDirection,WindDirectionDegrees,WindSpeedMPH,WindSpeedGustMPH,Humidity,HourlyPrecipIn,Conditions,Clouds,dailyrainin,SoftwareType,DateUTC
2013-01-26 16:22:00,43.0,38.0,29.88,South,176,2.0,-999.0,82,-99.99,,,-99.99,,2013-01-27 00:22:00,
2013-01-26 16:32:00,43.0,38.0,29.88,South,176,2.0,-999.0,82,-99.99,,,-99.99,,2013-01-27 00:32:00,
2013-01-26 16:42:00,43.0,38.0,29.88,South,176,2.0,-999.0,82,-99.99,,,-99.99,,2013-01-27 00:42:00,
2013-01-26 16:52:00,43.0,38.0,29.88,South,176,2.0,-999.0,82,-99.99,,,-99.99,,2013-01-27 00:52:00,
2013-01-26 17:01:00,43.0,38.0,29.88,South,176,2.0,-999.0,82,-99.99,,,-99.99,,2013-01-27 01:01:00,
2013-01-26 17:22:00,41.0,37.0,29.89,SSW,212,2.0,-999.0,85,-99.99,,,-99.99,,2013-01-27 01:22:00,
2013-01-26 17:32:00,41.0,37.0,29.89,SSW,212,2.0,-999.0,85,-99.99,,,-99.99,,2013-01-27 01:32:00,
2013-01-26 17:42:00,41.0,37.0,29.89,SSW,212,2.0,-999.0,85,-99.99,,,-99.99,,2013-01-27 01:42:00,
2013-01-26 17:52:00,41.0,38.0,29.89,SSW,195,1.0,-999.0,89,-99.99,,,-99.99,,2013-01-27 01:52:00,
2013-01-26 18:01:00,41.0,38.0,29.89,SSW,195,1.0,-999.0,89,-99.99,,,-99.99,,2013-01-27 02:01:00,
2013-01-26 18:11:00,41.0,38.0,29.89,SSW,195,1.0,-999.0,89,-99.99,,,-99.99,,2013-01-27 02:11:00,
2013-01-26 18:21:00,40.0,38.0,29.90,SSW,210,0.0,-999.0,91,-99.99,,,-99.99,,2013-01-27 02:21:00,
2013-01-26 18:31:00,40.0,38.0,29.90,SSW,210,0.0,-999.0,91,-99.99,,,-99.99,,2013-01-27 02:31:00,
2013-01-26 18:42:00,40.0,38.0,29.90,SSW,210,0.0,-999.0,91,-99.99,,,-99.99,,2013-01-27 02:42:00,
2013-01-26 18:52:00,40.0,38.0,29.91,SW,215,1.0,-999.0,92,-99.99,,,-99.99,,2013-01-27 02:52:00,
2013-01-26 19:01:00,40.0,38.0,29.91,SW,215,1.0,-999.0,92,-99.99,,,-99.99,,2013-01-27 03:01:00,
2013-01-26 19:11:00,40.0,38.0,29.91,SW,215,1.0,-999.0,92,-99.99,,,-99.99,,2013-01-27 03:11:00,
2013-01-26 19:21:00,39.0,37.0,29.92,SSW,213,1.0,-999.0,92,-99.99,,,-99.99,,2013-01-27 03:21:00,
2013-01-26 19:31:00,39.0,37.0,29.92,SSW,213,1.0,-999.0,92,-99.99,,,-99.99,,2013-01-27 03:31:00,
2013-01-26 19:42:00,39.0,37.0,29.92,SSW,213,1.0,-999.0,92,-99.99,,,-99.99,,2013-01-27 03:42:00,
2013-01-26 19:52:00,39.0,37.0,29.92,SSW,206,3.0,-999.0,93,-99.99,,,-99.99,,2013-01-27 03:52:00,
2013-01-26 20:01:00,39.0,37.0,29.92,SSW,206,3.0,-999.0,93,-99.99,,,-99.99,,2013-01-27 04:01:00,
2013-01-26 20:11:00,39.0,37.0,29.92,SSW,206,3.0,-999.0,93,-99.99,,,-99.99,,2013-01-27 04:11:00,
2013-01-26 20:21:00,39.0,37.0,29.93,SSW,200,1.0,-999.0,93,-99.99,,,-99.99,,2013-01-27 04:21:00,
2013-01-26 20:31:00,39.0,37.0,29.93,SSW,200,1.0,-999.0,93,-99.99,,,-99.99,,2013-01-27 04:31:00,
2013-01-26 20:42:00,39.0,37.0,29.93,SSW,200,1.0,-999.0,93,-99.99,,,-99.99,,2013-01-27 04:42:00,
2013-01-26 20:52:00,39.0,37.0,29.93,SSW,200,1.0,-999.0,93,-99.99,,,-99.99,,2013-01-27 04:52:00,
2013-01-26 21:02:00,39.0,37.0,29.93,SSW,200,1.0,-999.0,93,-99.99,,,-99.99,,2013-01-27 05:02:00,
2013-01-26 21:22:00,38.0,36.0,29.94,SSW,200,0.0,-999.0,94,-99.99,,,-99.99,,2013-01-27 05:22:00,
2013-01-26 21:32:00,38.0,36.0,29.94,SSW,200,0.0,-999.0,94,-99.99,,,-99.99,,2013-01-27 05:32:00,
2013-01-26 21:42:00,38.0,36.0,29.94,SSW,200,0.0,-999.0,94,-99.99,,,-99.99,,2013-01-27 05:42:00,
2013-01-26 21:52:00,38.0,37.0,29.94,South,186,0.0,-999.0,95,-99.99,,,-99.99,,2013-01-27 05:52:00,
2013-01-26 22:01:00,38.0,37.0,29.94,South,186,0.0,-999.0,95,-99.99,,,-99.99,,2013-01-27 06:01:00,
2013-01-26 22:11:00,38.0,37.0,29.94,South,186,0.0,-999.0,95,-99.99,,,-99.99,,2013-01-27 06:11:00,
2013-01-26 22:21:00,38.0,37.0,29.95,WSW,247,1.0,-999.0,95,-99.99,,,-99.99,,2013-01-27 06:21:00,
2013-01-26 22:31:00,38.0,37.0,29.95,WSW,247,1.0,-999.0,95,-99.99,,,-99.99,,2013-01-27 06:31:00,
2013-01-26 22:42:00,38.0,37.0,29.95,WSW,247,1.0,-999.0,95,-99.99,,,-99.99,,2013-01-27 06:42:00,
2013-01-26 22:52:00,39.0,37.0,29.96,SSW,212,1.0,-999.0,94,-99.99,,,-99.99,,2013-01-27 06:52:00,
2013-01-26 23:01:00,39.0,37.0,29.96,SSW,212,1.0,-999.0,94,-99.99,,,-99.99,,2013-01-27 07:01:00,
2013-01-26 23:13:00,39.0,37.0,29.96,SSW,212,1.0,-999.0,94,-99.99,,,-99.99,,2013-01-27 07:13:00,
2013-01-26 23:21:00,39.0,37.0,29.96,SSW,212,1.0,-999.0,94,-99.99,,,-99.99,,2013-01-27 07:21:00,
2013-01-26 23:31:00,39.0,37.0,29.96,SSW,212,1.0,-999.0,94,-99.99,,,-99.99,,2013-01-27 07:31:00,